Regional Weather Roundup
Issued by NWS Lake Charles, LA

Home | Current Version | Previous Version | Text Only | Print | Product List | Glossary On
Versions: 1 2 3 4 5 6 7 8 9 10 11 12 13 14 15 16 17 18 19 20 21 22 23 24 25 26 27 28 29 30 31 32 33 34 35 36 37 38 39 40 41 42 43 44 45 46 47 48 49 50
000
ASUS44 KLCH 071510
RWRLCH
RWRLCH
REGIONAL WEATHER ROUNDUP
NATIONAL WEATHER SERVICE LAKE CHARLES LA
1000 AM CDT TUE JUL 07 2015

Note: "fair" indicates few or no clouds below 12,000 feet with no
significant weather and/or obstructions to visibility.


ACROSS SOUTHEAST TEXAS

CITY           SKY/WX    TMP DP  RH WIND       PRES   REMARKS
BEAUMONT       MOSUNNY   88  77  69 S15       30.05F HX 100
BEAUMONT CITY  PTSUNNY   84  77  79 S8        30.06S
ORANGE         MOSUNNY   86  75  70 S12       30.08F
JASPER         PTSUNNY   86  78  78 S8G16     30.09S
$$

ACROSS CENTRAL LOUISIANA

CITY           SKY/WX    TMP DP  RH WIND       PRES   REMARKS
LEESVILLE      MOSUNNY   84  75  74 S13       30.07S
FULLERTON        N/A     88  75  65 VRB7      30.06F
ALEXANDRIA INT MOSUNNY   85  77  77 S9        30.07S
ESLER FIELD    MOSUNNY   88  76  67 S8        30.09F
DERIDDER         N/A     85  76  74 S8        30.09F
OAKDALE        MOSUNNY   85  78  77 S6        30.09F
OPELOUSAS      PTSUNNY   84  78  81 S7        30.10S
$$

ACROSS SOUTHWEST AND SOUTH CENTRAL LOUISIANA

CITY           SKY/WX    TMP DP  RH WIND       PRES   REMARKS
SULPHUR        MOSUNNY   88  74  63 S12       30.09S
LAKE CHARLES   PTSUNNY   88  76  67 S9        30.08S
CHENNAULT INT  MOSUNNY   88  75  66 S18       30.09S
CAMERON PHI    SUNNY     86  75  70 S10G17    30.11S
DEQUINCY       PTSUNNY   86  77  75 SE13G18   30.08S
JENNINGS         N/A     85  76  74 S9G17     30.09F
LAFAYETTE      SUNNY     86  75  69 S13       30.10S
NEW IBERIA     NOT AVBL
ABBEVILLE        N/A     87  77  72 S13       30.11S
PATTERSON      PTSUNNY   86  75  70 S10       30.13S
SALT POINT       N/A     88  78  72 VRB6      30.10R HX 101
$$

SELECTED SITES ACROSS THE REGION

CITY           SKY/WX    TMP DP  RH WIND       PRES   REMARKS
HOUSTON BUSH   PTSUNNY   86  76  71 S9G20     30.03S
HOUSTON HOBBY  PTSUNNY   87  76  69 SE15G23   30.02F
GALVESTON      MOSUNNY   87  78  74 S16       30.06S HX 100
COLLEGE STAT   PTSUNNY   84  75  74 S17G25    30.01S
CONROE         PTSUNNY   85  74  69 S14       30.04R
HUNTSVILLE     PTSUNNY   86  75  69 S12G20    30.03S
LUFKIN         MOSUNNY   85  75  72 S15       30.04S
SHREVEPORT     PTSUNNY   86  75  69 S13       30.04S
MONROE         MOSUNNY   85  76  74 SW12      30.08S
NATCHEZ MS     NOT AVBL
BATON ROUGE    PTSUNNY   87  76  69 S13       30.12S
N.O. INTL ARPT MOSUNNY   88  74  63 S13       30.13R
SLIDELL        MOSUNNY   87  76  69 S12       30.14R
$$

MARINE REPORTS

STATION/POSITION TIME  TEMP    WIND        PRES    VSBY  WAVE
                       AIR SEA DIR/SP/G                  HT/PER
                 (UTC) (F)     (DEG/KT/KT) (MB)    (MI)  (FT/S)
BUOY 30 S HIGH I 1450   83 84  190/ 12/ 16 1017.2F         4/ 6
SEA RIM ST PARK  1500   85     160/ 11/ 14 1018.6F
PORT ARTHUR      1400      84  180/  7/ 11 1018.5R
SABINE PASS N    1400   85 84  190/ 10/ 15 1018.7R
TEXAS POINT      NOT AVBL
CALCASIEU PASS   1400   85 85  200/ 11/ 14   N/A
LK CHARLES BEACH 1400   85 85                N/A
MARSH ISLAND     1400   87     180/ 12/ 17   N/A           0
FRESH WATER LOCK 1400   85 85  170/  9/ 12 1019.2R
AMERADA PASS     1400   85 83  170/  5/ 11 1019.5R
$$



USA.gov is the U.S. government's official web portal to all federal, state and local government web resources and services.